Back to catalog

STARLINK-36223

AliveCommunicationsVLEO
NORAD 67126·PAYLOAD·🇺🇸 United States

Launched Dec 15, 2025 from Cape Canaveral Space Force Station

Loading…

Next Passes (next 24 hours)

TLE

FreshSource: CelesTrak SupGP

Epoch: Sep 14, 2026, 22:45 UTC

1 67126C 25299AA  26257.94840278 -.00023081  00000+0 -83596-3 0  2579
2 67126  43.0019 180.0453 0001311 265.2608  42.3551 15.27591006    14

Track STARLINK-36223 in real time with AllMySat

Download on the App Store